Location: Brad
(46.1333°N, 22.7833°E)
Time: 10:05:39
(UTC+00:00)

RESURS DK-1 - Pass Details

Date: 03 February 2023
Orbit: 549 x 557 km, 69.9° (Epoch: 20 March)

Event Time Altitude Azimuth Distance (km) Brightness Sun altitude
Rises 16:37:13 0° 338° (NNW) 2,740 6.0 -10.9°
Reaches altitude 10° 16:39:33 10° 346° (NNW) 1,843 5.0 -11.3°
Maximum altitude 16:43:23 37° 55° (NE) 874 2.9 -11.9°
Drops below altitude 10° 16:47:13 10° 124° (SE) 1,837 4.6 -12.6°
Enters shadow 16:47:17 10° 124° (SE) 1,859 4.6 -12.6°
